Tracking 31027 objects as of 19-Jul-2025
HD Live streaming from Space Station
objects crossing your sky now

COSMOS 2251 DEB

Track COSMOS 2251 DEB now!
10-day predictions


NORAD ID: 35771
Int'l Code: 1993-036ARR
Perigee: 703.5 km
Apogee: 1,031.1 km
Inclination: 74.2 °
Period: 102.1 minutes
Semi major axis: 7238 km
RCS: 0.0095 m2 (small)
Launch date: June 16, 1993
Source: Commonwealth of Independent States (former USSR) (CIS)
Launch site: PLESETSK MISSILE AND SPACE COMPLEX (PKMTR)

Note: This is SATELLITE DEBRIS
Your satellite tracking list
Your tracking list is empty




NASA's NSSDC Master Catalog

Two Line Element Set (TLE):
1 35771U 93036ARR 25197.77380386  .00004740  00000-0  21372-2 0  9992
2 35771  74.1674 211.1732 0226316 189.9474 169.7151 14.09767059807590
Source of the keplerian elements: AFSPC